Frederick, MD

10:14 AM EDT on May 23, 2017 (GMT -0400)
Frederick Municipal

Weather History for KFDK - March, 2014

Change the Weather History Date:

Friday, March 28, 2014

  Actual Average (KHGR) Record (KHGR)
Temperature  
Mean Temperature 52 °F -  
Max Temperature 64 °F 55 °F 80 °F (1998)
Min Temperature 41 °F 37 °F 23 °F (2011)
Degree Days  
Heating Degree Days 12    
Growing Degree Days 2 (Base 50)    
Moisture  
Dew Point 41 °F    
Average Humidity 72    
Maximum Humidity 100    
Minimum Humidity 53    
Precipitation  
Precipitation 0.00 in - - ()
Sea Level Pressure  
Sea Level Pressure 30.09 in    
Wind  
Wind Speed 8 mph (South)    
Max Wind Speed 20 mph    
Max Gust Speed 26 mph    
Visibility 10 miles    
Events Rain    
Averages and records for this station are not official NWS values.
T = Trace of Precipitation, MM = Missing Value Source: NWS Daily Summary

Daily Weather History Graph

Daily Weather History Graph

Search for Another Location

Airport or City:

Trip Planner

Search our weather history database for the weather conditions in past years. The results will help you decide how hot, cold, wet, or windy it might be!

Date:

Astronomy

Mar. 28, 2014 Rise Set
Actual Time 7:00 AM EDT 7:29 PM EDT
Civil Twilight 6:33 AM EDT 7:56 PM EDT
Nautical Twilight 6:01 AM EDT 8:28 PM EDT
Astronomical Twilight 5:29 AM EDT 9:00 PM EDT
Moon 5:29 AM EDT (3/28) 5:24 PM EDT (3/28)
Length of Visible Light 13h 23m
Length of Day
12h 29m
Waning Crescent, 6% of the Moon is Illuminated
Mar 28
Waning Crescent
Mar 30
New
Apr 7
First Quarter
Apr 15
Full
Apr 22
Last Quarter

Hourly Weather History & Observations

Time (EDT) Temp. Windchill Dew Point Humidity Pressure Visibility Wind Dir Wind Speed Gust Speed Precip Events Conditions
12:15 AM 41.0 °F 38.0 °F 28.4 °F 61% 30.19 in 10.0 mi SSE 4.6 mph - N/A   Clear
12:35 AM 41.0 °F 36.4 °F 28.4 °F 61% 30.17 in 10.0 mi SSE 6.9 mph - N/A   Scattered Clouds
12:55 AM 42.8 °F 41.1 °F 28.4 °F 57% 30.17 in 10.0 mi SSE 3.5 mph - N/A   Scattered Clouds
1:15 AM 41.0 °F - 28.4 °F 61% 30.16 in 10.0 mi Calm Calm - N/A   Scattered Clouds
1:35 AM 41.0 °F 37.1 °F 30.2 °F 65% 30.15 in 10.0 mi SE 5.8 mph - N/A   Scattered Clouds
1:55 AM 41.0 °F 38.0 °F 28.4 °F 61% 30.14 in 10.0 mi SSE 4.6 mph - N/A   Scattered Clouds
2:15 AM 42.8 °F 39.3 °F 28.4 °F 57% 30.13 in 10.0 mi SSE 5.8 mph - N/A   Scattered Clouds
2:35 AM 42.8 °F 39.3 °F 28.4 °F 57% 30.13 in 10.0 mi South 5.8 mph - N/A   Scattered Clouds
2:55 AM 44.6 °F 40.7 °F 28.4 °F 53% 30.12 in 10.0 mi South 6.9 mph - N/A   Scattered Clouds
3:15 AM 44.6 °F 40.2 °F 28.4 °F 53% 30.10 in 10.0 mi South 8.1 mph - N/A   Clear
3:35 AM 44.6 °F 40.2 °F 28.4 °F 53% 30.09 in 10.0 mi South 8.1 mph - N/A   Scattered Clouds
3:55 AM 46.4 °F 41.1 °F 30.2 °F 53% 30.08 in 10.0 mi South 11.5 mph - N/A   Scattered Clouds
4:15 AM 46.4 °F 40.7 °F 30.2 °F 53% 30.08 in 10.0 mi South 12.7 mph 17.3 mph N/A   Clear
4:35 AM 46.4 °F 41.5 °F 32.0 °F 57% 30.09 in 10.0 mi South 10.4 mph 16.1 mph N/A   Clear
4:55 AM 46.4 °F 41.1 °F 32.0 °F 57% 30.09 in 10.0 mi South 11.5 mph - N/A   Scattered Clouds
5:15 AM 46.4 °F 41.5 °F 32.0 °F 57% 30.08 in 10.0 mi South 10.4 mph - N/A   Mostly Cloudy
5:35 AM 46.4 °F 42.4 °F 32.0 °F 57% 30.08 in 10.0 mi South 8.1 mph 16.1 mph N/A   Mostly Cloudy
5:55 AM 46.4 °F 41.5 °F 33.8 °F 62% 30.08 in 10.0 mi South 10.4 mph 16.1 mph N/A   Scattered Clouds
6:15 AM 46.4 °F 42.4 °F 33.8 °F 62% 30.08 in 10.0 mi South 8.1 mph - N/A   Clear
6:35 AM 46.4 °F 42.9 °F 35.6 °F 66% 30.08 in 10.0 mi South 6.9 mph - N/A   Mostly Cloudy
6:50 AM 48.2 °F - 37.4 °F 66% 30.09 in 10.0 mi SSW 9.2 mph - N/A Rain Light Rain
7:50 AM 46.4 °F 41.9 °F 42.8 °F 87% 30.10 in 10.0 mi SSW 9.2 mph - N/A Rain Light Rain
8:50 AM 46.4 °F 42.9 °F 46.4 °F 100% 30.09 in 7.0 mi South 6.9 mph - N/A Rain Rain
9:49 AM 46.4 °F 41.5 °F 46.4 °F 100% 30.10 in 7.0 mi SSW 10.4 mph - N/A Rain Light Rain
11:50 AM 50.0 °F - 50.0 °F 100% 30.07 in 5.0 mi SSW 10.4 mph - N/A Rain Rain
12:45 PM 53.6 °F - 53.6 °F 100% 30.05 in 7.0 mi SSW 10.4 mph - N/A   Mostly Cloudy
1:49 PM 55.4 °F - 55.4 °F 100% 30.02 in 10.0 mi SSW 18.4 mph 24.2 mph N/A   Overcast
2:45 PM 59.0 °F - 53.6 °F 82% 30.01 in 10.0 mi SSW 18.4 mph 23.0 mph N/A   Scattered Clouds
3:45 PM 64.4 °F - 53.6 °F 68% 30.00 in 10.0 mi SSW 17.3 mph 26.5 mph N/A   Clear
4:45 PM 64.4 °F - 53.6 °F 68% 29.99 in 10.0 mi SSW 19.6 mph 26.5 mph N/A   Clear
5:59 PM 64.4 °F - 53.6 °F 68% 30.02 in 10.0 mi SSW 19.6 mph 25.3 mph N/A   Scattered Clouds
7:59 PM 60.8 °F - 51.8 °F 72% 30.04 in 10.0 mi SSW 6.9 mph - N/A   Clear
8:40 PM 59.0 °F - 51.8 °F 77% 30.05 in 10.0 mi SSW 6.9 mph - N/A   Scattered Clouds
9:00 PM 55.4 °F - 51.8 °F 88% 30.05 in 10.0 mi South 4.6 mph - N/A   Clear
9:20 PM 57.2 °F - 51.8 °F 82% 30.06 in 10.0 mi South 5.8 mph - N/A   Clear
9:40 PM 59.0 °F - 51.8 °F 77% 30.07 in 10.0 mi South 5.8 mph - N/A   Clear
10:00 PM 55.4 °F - 51.8 °F 88% 30.07 in 10.0 mi SSW 5.8 mph - N/A   Clear
10:20 PM 55.4 °F - 51.8 °F 88% 30.07 in 10.0 mi SSW 6.9 mph - N/A   Clear
10:40 PM 55.4 °F - 51.8 °F 88% 30.08 in 10.0 mi South 5.8 mph - N/A   Clear
11:00 PM 51.8 °F - 50.0 °F 94% 30.10 in 10.0 mi WNW 8.1 mph - N/A   Scattered Clouds
11:20 PM 55.4 °F - 51.8 °F 88% 30.11 in 10.0 mi WSW 5.8 mph - N/A   Scattered Clouds
11:40 PM 53.6 °F - 50.0 °F 88% 30.11 in 10.0 mi South 4.6 mph - N/A   Clear